loading
|

STARLINK-32132, 60334

Orbit data source: Space-Track

STARLINK-32132, 60334 is a payload satellite owned by SpaceX/Seattle (US) in LEO that was launched on Fri, 02 Aug 2024 UTC via an FALCON 9 launch vehicle from the Air Force Eastern Test Range (AFETR). Payloads include a variety of satellites, spacecraft, and rockets equipped with specific instruments for various scientific and technological missions. These include communications satellites like Starlink; space stations such as the ISS; scientific satellites like the Hubble; Earth observation satellites from companies like Planet Labs, Umbra, and HawkEye 360; GPS; miniature CubeSats for education and research; and military/defense satellites.

Loading next visibility...
Loading greatness...
STARLINK-32132 details
Identifier
60334, 2024-136F
Orbit
LEO
Last TLE update4 hours ago
Origin
Flag of USSpaceX/Seattle (US)
ManufacturerSpaceX/Seattle
Mission statusOperational
MissionUnknown
Bus & MotorSTARLINK V2M, Unknown motor
Mass750 kg wet, ~700 kg dry
Launch date (UTC)
2024-08-02 (2 months ago)
Launch vehicle
FALCON 9
Launch site
Air Force Eastern Test Range (AFETR)
Object type
Payload
Rocket body
Debris
Radar Cross SectionLarge (>1 m²)

Expand to show TLE details & history

TLE from 4 hours ago
0 STARLINK-32132
1 60334U 24136F   24261.80322648  .00003522  00000-0  97950-4 0  9996
2 60334  53.1635  54.6579 0000922 102.3249 257.7859 15.39634509  8366
Epoch: 2024-09-17T19:16Z
Definitive object data (Epoch: 2024-09-17T19:16:38.767Z)
Latitude-0.00005°
Longitude128.28369°
Altitude448.226 km
Speed7.644 km/s
True Right ascension03h 38m 37s
True Declination0° 00' 00"
Sunlit
Object was in full shadow at TLE epoch
Predictive object data (real-time)
Latitude-47.04979°
Longitude0.61666°
Altitude463.749 km
Speed7.634 km/s
Apparent Right ascension23h 56m 09s
Apparent Declination-68° 50' 49"
Sunlit
Object is in daylight
Predictive observer data (real-time)
Local Sidereal Time16:16:26
Azimuth152.087° SSE
Elevation-45.65°
Doppler factor1
Orbital elements
Apogee448.075 km
Perigee446.817 km
Semi-major axis6,825.583 km
Eccentricity0.0000922
Inclination53.1635°
RAAN54.6579°
Arg. of periapsis102.3249°
True anomaly257.77557°
Mean anomaly257.7859°
Eccentric anomaly257.78074°
Mean motion3.84887 °/min
BSTAR0.00009795
Period93.53 mins
No data available

STARLINK-32132 Visibility forecast

Observer location: 39.9160978°, -105.1181434

STARLINK-32132 is not visible in the next 10 days
Span
Click to sort rows by Start time (UTC) header in descending order
Start Az.
Max El. time (UTC)
Max El. Az.
Max El.
End time (UTC)
End Az.